| time (UTC) | temp F | wind direction | speed knots | gust knots | rain 1hr in | rain 24hr in | rain mn in | humidity % | barometer mb |
| 20260508020306 | 43 | 0 | 0.0 | 0.0 | 0.00 | 0.00 | 0.00 | 93 | 1016.0 |
| 20260508013231 | 43 | 0 | 1.7 | 0.0 | 0.00 | 0.00 | 0.00 | 93 | 1016.0 |
| 20260508010247 | 43 | 0 | 0.9 | 0.0 | 0.00 | 0.00 | 0.00 | 93 | 1016.0 |
| 20260508003305 | 43 | 0 | 0.0 | 0.0 | 0.00 | 0.00 | 0.00 | 93 | 1016.0 |
| 20260508000305 | 45 | 0 | 0.9 | 0.0 | 0.00 | 0.00 | 0.00 | 93 | 1016.0 |
| 20260507233231 | 45 | 0 | 1.7 | 0.0 | 0.00 | 0.00 | 0.00 | 93 | 1016.0 |
| 20260507230232 | 45 | 0 | 1.7 | 0.0 | 0.00 | 0.00 | 0.00 | 93 | 1016.0 |
| 20260507223305 | 45 | 280 | 0.9 | 0.0 | 0.00 | 0.00 | 0.00 | 93 | 1016.0 |
| 20260507220306 | 48 | 0 | 0.9 | 0.0 | 0.00 | 0.00 | 0.00 | 87 | 1016.0 |
| 20260507213230 | 48 | 0 | 1.7 | 0.0 | 0.00 | 0.00 | 0.00 | 81 | 1016.0 |
| 20260507210248 | 50 | 0 | 0.0 | 0.0 | 0.00 | 0.00 | 0.00 | 81 | 1016.0 |
| 20260507203305 | 52 | 300 | 2.6 | 0.0 | 0.00 | 0.00 | 0.00 | 76 | 1016.0 |
| 20260507200249 | 52 | 300 | 2.6 | 0.0 | 0.00 | 0.00 | 0.00 | 76 | 1015.0 |
| 20260507193305 | 54 | 0 | 1.7 | 0.0 | 0.00 | 0.00 | 0.00 | 71 | 1015.0 |
| 20260507190247 | 55 | 330 | 2.6 | 0.0 | 0.00 | 0.00 | 0.00 | 66 | 1015.0 |
| 20260507183231 | 55 | 330 | 5.2 | 0.0 | 0.00 | 0.00 | 0.00 | 66 | 1014.0 |
| 20260507180306 | 57 | 330 | 2.6 | 0.0 | 0.00 | 0.00 | 0.00 | 62 | 1014.0 |
| 20260507173304 | 59 | 280 | 7.0 | 0.0 | 0.00 | 0.00 | 0.00 | 54 | 1013.0 |
| 20260507170306 | 61 | 270 | 7.8 | 0.0 | 0.00 | 0.00 | 0.00 | 48 | 1013.0 |
| 20260507163305 | 63 | 240 | 8.7 | 0.0 | 0.00 | 0.00 | 0.00 | 45 | 1013.0 |
| 20260507160241 | 63 | 240 | 11.3 | 0.0 | 0.00 | 0.00 | 0.00 | 48 | 1012.0 |
| 20260507153304 | 63 | 260 | 13.0 | 0.0 | 0.00 | 0.00 | 0.00 | 48 | 1012.0 |
| 20260507150240 | 63 | 250 | 7.0 | 0.0 | 0.00 | 0.00 | 0.00 | 48 | 1012.0 |
| 20260507143304 | 66 | 270 | 7.8 | 0.0 | 0.00 | 0.00 | 0.00 | 42 | 1012.0 |
| 20260507140254 | 63 | 280 | 5.2 | 0.0 | 0.00 | 0.00 | 0.00 | 45 | 1012.0 |
| 20260507133238 | 66 | 250 | 7.0 | 0.0 | 0.00 | 0.00 | 0.00 | 45 | 1013.0 |
| 20260507130315 | 61 | 280 | 6.1 | 0.0 | 0.00 | 0.00 | 0.00 | 51 | 1013.0 |
| 20260507123305 | 63 | 230 | 10.4 | 0.0 | 0.00 | 0.00 | 0.00 | 45 | 1013.0 |
| 20260507123018 | 63 | 230 | 10.4 | 0.0 | 0.00 | 0.00 | 0.00 | 45 | 1013.0 |
| 20260507120248 | 61 | 290 | 6.1 | 0.0 | 0.00 | 0.00 | 0.00 | 51 | 1013.0 |
| 20260507113237 | 61 | 270 | 8.7 | 0.0 | 0.00 | 0.00 | 0.00 | 51 | 1013.0 |
| 20260507110315 | 61 | 270 | 7.8 | 0.0 | 0.00 | 0.00 | 0.00 | 51 | 1013.0 |
| 20260507103306 | 63 | 280 | 7.8 | 0.0 | 0.00 | 0.00 | 0.00 | 51 | 1012.0 |
| 20260507100247 | 61 | 280 | 12.2 | 0.0 | 0.00 | 0.00 | 0.00 | 51 | 1012.0 |
| 20260507093237 | 61 | 270 | 10.4 | 0.0 | 0.00 | 0.00 | 0.00 | 51 | 1012.0 |
| 20260507090314 | 59 | 280 | 7.8 | 0.0 | 0.00 | 0.00 | 0.00 | 58 | 1012.0 |
| 20260507083305 | 61 | 280 | 7.0 | 0.0 | 0.00 | 0.00 | 0.00 | 55 | 1012.0 |
| 20260507080247 | 59 | 270 | 5.2 | 0.0 | 0.00 | 0.00 | 0.00 | 54 | 1011.0 |
| 20260507073230 | 57 | 260 | 7.0 | 0.0 | 0.00 | 0.00 | 0.00 | 58 | 1012.0 |
| 20260507070314 | 57 | 270 | 6.1 | 0.0 | 0.00 | 0.00 | 0.00 | 62 | 1012.0 |
| 20260507063305 | 55 | 220 | 7.0 | 0.0 | 0.00 | 0.00 | 0.00 | 66 | 1012.0 |
| 20260507060242 | 54 | 200 | 5.2 | 0.0 | 0.00 | 0.00 | 0.00 | 71 | 1011.0 |
| 20260507053231 | 52 | 210 | 4.3 | 0.0 | 0.00 | 0.00 | 0.00 | 81 | 1011.0 |
| 20260507050249 | 50 | 200 | 4.3 | 0.0 | 0.00 | 0.00 | 0.00 | 87 | 1011.0 |
| 20260507043231 | 48 | 240 | 4.3 | 0.0 | 0.00 | 0.00 | 0.00 | 93 | 1010.0 |
| 20260507040306 | 48 | 260 | 7.0 | 0.0 | 0.00 | 0.00 | 0.00 | 87 | 1010.0 |
| 20260507033231 | 50 | 260 | 4.3 | 0.0 | 0.00 | 0.00 | 0.00 | 87 | 1010.0 |
| 20260507030306 | 48 | 0 | 0.0 | 0.0 | 0.00 | 0.00 | 0.00 | 93 | 1010.0 |
| 20260507023231 | 52 | 0 | 2.6 | 0.0 | 0.00 | 0.00 | 0.00 | 81 | 1009.0 |